Location: Auttagershofen
(48.1940°N, 10.0237°E)
Time: 23:26:48
(UTC+00:00)

Cosmos 1656 Rocket - Pass Details

Date: 18 January 2026
Orbit: 794 x 843 km, 71.1° (Epoch: 16 February)

Event Time Altitude Azimuth Distance (km) Brightness Sun altitude
Rises 05:58:17 0° 210° (SSW) 3,389 6.7 -10.7°
Reaches altitude 10° 06:00:44 10° 212° (SSW) 2,458 6.0 -10.3°
Maximum altitude 06:06:23 77° 298° (WNW) 868 3.7 -9.4°
Drops below altitude 10° 06:12:03 10° 25° (NNE) 2,459 6.2 -8.5°
Sets 06:14:30 0° 27° (NNE) 3,391 6.9 -8.1°
